Language: 


Des rapports , des résumés tant et plus, au choix de chacun....


Données statistiques de la station
Quotidien Rapport Juillet 8, 2017 Unités:  Anglais    Métrique   les deux
« Précédent Jour
Suivant Jour »
Quotidien Hebdomadaire Mensuel Annuel Actuel
  Haut: Bas: Moyen:
Température: 79.5 °F 32 °F 69.3 °F
Pt de rosée: 66.2 °F 50 °F 59.7 °F
Humidité: 94 % 0 % 72 %
Vitesse du vent: 12.5 mph 0 mph 3.3 mph
Rafales: 12.5 mph - -
Vent:- - WSW
Pression: 30.1 in 0 in -
Précipitation: 0 in    
Historical Graphs
 
 
Données statistiques pour Juillet 8, 2017
Heure Température Point de rosée Pression Vent Vitesse du vent Refales Humidité Pluie (taux horaire)
00:00 62.2 °F 50 °F 30 in Calm   2.7 mph 65 % 0 in
00:05 62.1 °F 50 °F 30 in Calm   2.7 mph 65 % 0 in
00:10 61.5 °F 50 °F 30 in Calm   1.3 mph 66 % 0 in
00:15 61.2 °F 50 °F 30 in Calm   1.3 mph 67 % 0 in
00:20 60.8 °F 50 °F 30 in Calm     67 % 0 in
00:25 60.4 °F 50 °F 30 in Calm   4 mph 69 % 0 in
00:30 60.4 °F 50 °F 30 in Calm   4 mph 69 % 0 in
00:35 60.1 °F 50 °F 30 in Calm     69 % 0 in
00:40 60.1 °F 50 °F 30 in Calm     70 % 0 in
00:46 59.9 °F 50 °F 30 in Calm     70 % 0 in
00:51 59.9 °F 50 °F 30 in Calm     70 % 0 in
00:56 59.7 °F 50 °F 30 in Calm     71 % 0 in
00:57 59.7 °F 50 °F 30 in Calm     70 % 0 in
01:02 59.9 °F 51.8 °F 30 in SSW 2.9 mph 3.4 mph 71 % 0 in
01:07 59.9 °F 51.8 °F 30 in West 2.5 mph 3.4 mph 71 % 0 in
01:12 60.1 °F 51.8 °F 30 in Calm   3.1 mph 72 % 0 in
01:18 60.1 °F 51.8 °F 30 in Calm     71 % 0 in
01:22 59.9 °F 51.8 °F 30 in Calm     72 % 0 in
01:28 59.9 °F 51.8 °F 30 in Calm     72 % 0 in
01:33 60.1 °F 51.8 °F 30 in Calm     72 % 0 in
01:38 60.1 °F 51.8 °F 30 in WSW 4.9 mph 4.9 mph 73 % 0 in
01:43 60.6 °F 53.6 °F 30 in WSW 3.4 mph 4.9 mph 74 % 0 in
01:48 60.8 °F 51.8 °F 30 in WSW 3.8 mph 4.7 mph 73 % 0 in
01:53 61 °F 53.6 °F 30 in Calm   5.6 mph 74 % 0 in
01:55 61 °F 53.6 °F 30 in WSW 3.4 mph 5.6 mph 74 % 0 in
02:00 61.2 °F 53.6 °F 30 in Calm   4.3 mph 75 % 0 in
02:05 61.3 °F 53.6 °F 30 in Calm   4.5 mph 75 % 0 in
02:10 61.5 °F 53.6 °F 30 in Calm   4.5 mph 76 % 0 in
02:16 61.5 °F 53.6 °F 30 in WSW 4.3 mph 6.5 mph 76 % 0 in
02:21 61.9 °F 55.4 °F 30 in Calm   6.5 mph 77 % 0 in
02:26 61.9 °F 55.4 °F 30 in Calm   6.3 mph 78 % 0 in
02:31 61.9 °F 55.4 °F 30 in Calm   3.8 mph 78 % 0 in
02:36 61.9 °F 55.4 °F 30 in WSW 6 mph 6 mph 79 % 0 in
02:41 61.9 °F 55.4 °F 30 in WSW 3.6 mph 6.5 mph 80 % 0 in
02:46 61.9 °F 55.4 °F 30 in WSW 3.8 mph 6.5 mph 80 % 0 in
02:51 61.7 °F 55.4 °F 30 in West 2 mph 5.4 mph 80 % 0 in
02:56 61.7 °F 55.4 °F 30 in Calm   5.6 mph 80 % 0 in
03:01 61.5 °F 55.4 °F 30 in Calm   5.6 mph 81 % 0 in
03:06 61.2 °F 55.4 °F 30 in Calm     81 % 0 in
03:11 60.8 °F 55.4 °F 30 in Calm     81 % 0 in
03:16 60.6 °F 55.4 °F 30 in Calm     82 % 0 in
03:21 60.6 °F 55.4 °F 30 in Calm   4.3 mph 83 % 0 in
03:26 60.4 °F 55.4 °F 30 in Calm   4.3 mph 83 % 0 in
03:31 60.4 °F 55.4 °F 30 in Calm   4.5 mph 84 % 0 in
03:36 60.4 °F 55.4 °F 30 in WSW 2 mph 4.7 mph 85 % 0 in
03:41 60.6 °F 57.2 °F 30 in WSW 2.7 mph 4.7 mph 86 % 0 in
03:46 60.6 °F 57.2 °F 30 in Calm   4.3 mph 87 % 0 in
03:51 60.6 °F 57.2 °F 30 in Calm   4 mph 87 % 0 in
03:56 60.4 °F 57.2 °F 30 in Calm     87 % 0 in
04:01 60.4 °F 57.2 °F 30 in Calm   2.9 mph 88 % 0 in
04:07 60.3 °F 57.2 °F 30 in Calm   4 mph 88 % 0 in
04:12 60.4 °F 57.2 °F 30 in WSW 2.7 mph 4.7 mph 89 % 0 in
04:17 60.4 °F 57.2 °F 30 in Calm   4.9 mph 89 % 0 in
04:22 60.6 °F 57.2 °F 30 in Calm   4.9 mph 90 % 0 in
04:27 60.6 °F 59 °F 30 in Calm   3.6 mph 91 % 0 in
04:32 60.8 °F 57.2 °F 30 in Calm   3.8 mph 90 % 0 in
04:37 61 °F 59 °F 30 in WSW 2.7 mph 3.8 mph 91 % 0 in
04:42 61.2 °F 59 °F 30 in Calm   4.3 mph 91 % 0 in
04:47 61.2 °F 59 °F 30 in Calm   4.3 mph 91 % 0 in
04:52 61.3 °F 59 °F 30 in Calm   4 mph 91 % 0 in
04:57 61.3 °F 59 °F 30 in Calm   4 mph 91 % 0 in
05:02 61.3 °F 59 °F 30 in Calm   2.7 mph 91 % 0 in
05:07 61.3 °F 59 °F 30 in WSW 1.3 mph 3.6 mph 92 % 0 in
05:12 61.3 °F 59 °F 30 in Calm   3.6 mph 91 % 0 in
05:17 61.2 °F 59 °F 30 in Calm   2.5 mph 91 % 0 in
05:22 61 °F 59 °F 30 in Calm   2.5 mph 91 % 0 in
05:27 60.8 °F 59 °F 30 in Calm   2.2 mph 91 % 0 in
05:32 60.6 °F 59 °F 30 in Calm     92 % 0 in
05:37 60.4 °F 57.2 °F 30 in Calm     92 % 0 in
05:42 60.3 °F 57.2 °F 30 in Calm   3.1 mph 92 % 0 in
05:47 60.3 °F 57.2 °F 30 in Calm   3.1 mph 92 % 0 in
05:52 59.9 °F 57.2 °F 30 in Calm   2.5 mph 92 % 0 in
05:57 59.7 °F 57.2 °F 30 in Calm   2.5 mph 92 % 0 in
06:02 59.7 °F 57.2 °F 30 in Calm     92 % 0 in
06:07 59.7 °F 57.2 °F 30 in Calm     93 % 0 in
06:12 59.9 °F 59 °F 30 in Calm   2.2 mph 93 % 0 in
06:17 59.9 °F 59 °F 30 in Calm   3.4 mph 93 % 0 in
06:22 60.1 °F 59 °F 30 in Calm   3.4 mph 93 % 0 in
06:28 60.3 °F 59 °F 30 in Calm     94 % 0 in
06:33 60.4 °F 59 °F 30 in Calm     94 % 0 in
06:38 60.6 °F 59 °F 30 in WSW 1.6 mph 3.4 mph 94 % 0 in
06:43 61 °F 59 °F 30 in WSW 0.9 mph 4.3 mph 94 % 0 in
06:48 61.3 °F 59 °F 30 in Calm   4.3 mph 94 % 0 in
06:53 61.7 °F 60.8 °F 30 in Calm   2.7 mph 94 % 0 in
06:58 61.9 °F 60.8 °F 30 in WSW 5.6 mph 5.6 mph 94 % 0 in
07:25 63.5 °F 62.6 °F 30 in SW 2.9 mph 5.6 mph 94 % 0 in
07:30 64.4 °F 62.6 °F 30 in WSW 3.6 mph 6 mph 93 % 0 in
07:35 64.9 °F 62.6 °F 30 in West 4 mph 6.5 mph 93 % 0 in
07:41 32 °F 64.4 °F 0 in Calm     0 % 0 in
07:46 66 °F 64.4 °F 30 in SW 3.4 mph 7.2 mph 92 % 0 in
07:51 66 °F 64.4 °F 30 in WSW 5.6 mph 7.6 mph 91 % 0 in
07:56 66.6 °F 64.4 °F 30 in WSW 5.8 mph 7.6 mph 90 % 0 in
08:01 67.1 °F 64.4 °F 30 in West 7.6 mph 7.8 mph 89 % 0 in
08:06 67.1 °F 64.4 °F 30 in WNW 3.1 mph 8.7 mph 89 % 0 in
08:11 67.6 °F 64.4 °F 30 in West 4.3 mph 8.7 mph 88 % 0 in
08:16 68 °F 64.4 °F 30 in West 4.9 mph 10.7 mph 87 % 0 in
08:22 68.2 °F 64.4 °F 30 in SW 5.8 mph 10.7 mph 86 % 0 in
08:27 68.9 °F 64.4 °F 30 in West 5.4 mph 10.1 mph 86 % 0 in
08:32 69.4 °F 64.4 °F 30 in West 7.2 mph 7.8 mph 85 % 0 in
08:37 69.1 °F 64.4 °F 30 in WNW 1.3 mph 10.5 mph 84 % 0 in
08:42 68.7 °F 64.4 °F 30 in West 2.5 mph 10.5 mph 84 % 0 in
08:47 68.9 °F 64.4 °F 30 in West 5.4 mph 8.5 mph 84 % 0 in
08:52 69.3 °F 64.4 °F 30 in WNW 2.9 mph 7.2 mph 84 % 0 in
08:57 69.3 °F 64.4 °F 30 in WNW 5.4 mph 7.4 mph 84 % 0 in
09:02 70.2 °F 66.2 °F 30 in WNW 6 mph 7.8 mph 84 % 0 in
09:07 70.2 °F 66.2 °F 30 in NW 2.9 mph 7.8 mph 84 % 0 in
09:12 70.9 °F 66.2 °F 30 in West 6 mph 8.7 mph 82 % 0 in
09:17 70.9 °F 66.2 °F 30 in WNW 4 mph 10.1 mph 82 % 0 in
09:22 70.9 °F 66.2 °F 30 in NW 6.3 mph 10.3 mph 82 % 0 in
09:27 70.9 °F 66.2 °F 30 in NNW 6 mph 10.3 mph 82 % 0 in
09:32 70.9 °F 66.2 °F 30 in West 3.1 mph 9.2 mph 82 % 0 in
09:37 70.9 °F 66.2 °F 30 in WNW 7.4 mph 9.2 mph 82 % 0 in
09:42 70.9 °F 66.2 °F 30 in NE 3.6 mph 7.8 mph 82 % 0 in
09:47 70.9 °F 66.2 °F 30 in NW 2.5 mph 7.6 mph 82 % 0 in
09:52 70.9 °F 66.2 °F 30 in WNW 3.1 mph 7.6 mph 82 % 0 in
09:57 70.9 °F 66.2 °F 30 in WNW 5.6 mph 6.5 mph 82 % 0 in
10:02 70.9 °F 66.2 °F 30 in WSW 7.8 mph 9.8 mph 82 % 0 in
10:04 70.9 °F 66.2 °F 30 in WSW 7.8 mph 9.8 mph 82 % 0 in
10:09 70.9 °F 66.2 °F 30 in West 8.7 mph 9.8 mph 82 % 0 in
10:14 70.9 °F 66.2 °F 30 in WNW 0.9 mph 8.9 mph 82 % 0 in
10:19 70.9 °F 66.2 °F 30 in West 6 mph 7.2 mph 82 % 0 in
10:24 70.9 °F 66.2 °F 30 in West 3.8 mph 8.5 mph 82 % 0 in
10:29 70.9 °F 66.2 °F 30 in West 2.9 mph 8.5 mph 82 % 0 in
10:34 70.9 °F 66.2 °F 30 in WSW 5.8 mph 8.1 mph 82 % 0 in
10:39 70.9 °F 66.2 °F 30 in WNW 2.7 mph 8.5 mph 82 % 0 in
10:44 70.9 °F 66.2 °F 30 in West 2.9 mph 8.5 mph 82 % 0 in
10:49 70.9 °F 66.2 °F 30 in West 6 mph 8.5 mph 82 % 0 in
10:54 70.9 °F 66.2 °F 30 in North 5.6 mph 8.7 mph 82 % 0 in
10:59 70.9 °F 66.2 °F 30 in WNW 5.4 mph 10.3 mph 82 % 0 in
11:04 70.9 °F 66.2 °F 30 in SSW 5.8 mph 10.3 mph 82 % 0 in
11:09 70.9 °F 66.2 °F 30 in North 3.4 mph 9.2 mph 82 % 0 in
11:14 77.4 °F 64.4 °F 30 in West 5.6 mph 9.8 mph 64 % 0 in
11:19 77.4 °F 64.4 °F 30 in West 7.8 mph 9.8 mph 64 % 0 in
11:24 77.4 °F 64.4 °F 30 in WSW 3.6 mph 8.9 mph 64 % 0 in
11:29 77.4 °F 64.4 °F 30 in West 3.8 mph 8.5 mph 64 % 0 in
11:34 77.4 °F 64.4 °F 30 in North 5.6 mph 8.5 mph 64 % 0 in
11:39 77.4 °F 64.4 °F 30 in NW 6.5 mph 10.1 mph 64 % 0 in
11:44 77.4 °F 64.4 °F 30 in ESE 3.4 mph 10.1 mph 64 % 0 in
11:49 77.4 °F 64.4 °F 30 in NNW 4.9 mph 9.6 mph 64 % 0 in
11:55 77.4 °F 64.4 °F 30 in WNW 5.6 mph 9.6 mph 64 % 0 in
12:00 77.4 °F 64.4 °F 30 in NNW 7.2 mph 12.3 mph 64 % 0 in
12:05 77.4 °F 64.4 °F 30 in NNW 5.8 mph 12.3 mph 64 % 0 in
12:10 77.4 °F 64.4 °F 30 in NNW 2.7 mph 8.7 mph 64 % 0 in
12:12 77.4 °F 64.4 °F 30 in NNW 1.3 mph 8.7 mph 64 % 0 in
12:17 77.4 °F 64.4 °F 30.1 in WNW 12.5 mph 12.5 mph 64 % 0 in
12:22 77.4 °F 64.4 °F 30.1 in NNW 2.7 mph 12.5 mph 64 % 0 in
12:27 77.4 °F 64.4 °F 30.1 in WNW 2 mph 10.1 mph 64 % 0 in
12:32 77.4 °F 64.4 °F 30.1 in NW 4.9 mph 9.8 mph 64 % 0 in
12:37 77.4 °F 64.4 °F 30.1 in NW 4.3 mph 8.5 mph 64 % 0 in
12:42 77.4 °F 64.4 °F 30.1 in North 2.9 mph 8.5 mph 64 % 0 in
12:47 77.4 °F 64.4 °F 30.1 in North 5.4 mph 9.8 mph 64 % 0 in
12:52 76.5 °F 64.4 °F 30.1 in NNW 6.5 mph 9.8 mph 64 % 0 in
12:57 75.7 °F 62.6 °F 30.1 in West 2.7 mph 10.1 mph 63 % 0 in
13:02 75.9 °F 64.4 °F 30.1 in NNW 6 mph 10.1 mph 65 % 0 in
13:07 76.1 °F 64.4 °F 30.1 in WNW 3.8 mph 8.1 mph 64 % 0 in
13:12 75.9 °F 62.6 °F 30.1 in North 5.6 mph 8.1 mph 64 % 0 in
13:17 75.9 °F 62.6 °F 30.1 in SW 2 mph 8.1 mph 64 % 0 in
13:22 75.9 °F 62.6 °F 30.1 in NW 5.4 mph 7.6 mph 64 % 0 in
13:27 76.5 °F 62.6 °F 30.1 in North 7.4 mph 7.6 mph 63 % 0 in
13:28 76.5 °F 62.6 °F 30.1 in North 2.9 mph 7.6 mph 63 % 0 in
13:33 76.3 °F 62.6 °F 30.1 in NNW 7.8 mph 8.5 mph 63 % 0 in
13:38 76.3 °F 62.6 °F 30.1 in NE 4.3 mph 8.5 mph 63 % 0 in
13:43 76.3 °F 62.6 °F 30.1 in NNW 6.5 mph 8.1 mph 63 % 0 in
13:48 77.2 °F 62.6 °F 30.1 in North 3.8 mph 10.7 mph 62 % 0 in
13:53 77.2 °F 62.6 °F 30.1 in NNW 6.3 mph 10.7 mph 62 % 0 in
13:58 76.8 °F 62.6 °F 30.1 in Calm   10.7 mph 62 % 0 in
14:03 77.7 °F 62.6 °F 30.1 in WNW 8.1 mph 10.5 mph 61 % 0 in
14:08 77.7 °F 62.6 °F 30.1 in WNW 5.8 mph 10.5 mph 61 % 0 in
14:13 78.3 °F 64.4 °F 30.1 in NE 7.4 mph 8.5 mph 61 % 0 in
14:18 77.7 °F 62.6 °F 30.1 in WNW 9.6 mph 10.3 mph 60 % 0 in
14:23 77.5 °F 62.6 °F 30.1 in WNW 4.9 mph 10.3 mph 61 % 0 in
14:28 77 °F 62.6 °F 30.1 in WNW 8.1 mph 10.1 mph 60 % 0 in
14:33 76.5 °F 62.6 °F 30.1 in NNW 5.4 mph 10.7 mph 61 % 0 in
14:38 76.3 °F 62.6 °F 30.1 in North 8.5 mph 10.7 mph 63 % 0 in
14:43 76.6 °F 62.6 °F 30.1 in NNE 4.3 mph 9.8 mph 63 % 0 in
14:48 75.9 °F 62.6 °F 30.1 in North 5.4 mph 9.8 mph 63 % 0 in
14:53 75.6 °F 62.6 °F 30.1 in NE 5.6 mph 9.8 mph 63 % 0 in
14:58 75.7 °F 62.6 °F 30.1 in North 5.8 mph 8.5 mph 63 % 0 in
15:03 75.6 °F 62.6 °F 30.1 in NW 4.9 mph 8.7 mph 63 % 0 in
15:08 75.2 °F 62.6 °F 30.1 in WNW 4.7 mph 9.2 mph 63 % 0 in
15:13 75.6 °F 62.6 °F 30.1 in NW 5.6 mph 9.2 mph 63 % 0 in
15:18 75.7 °F 62.6 °F 30.1 in North 4 mph 8.5 mph 63 % 0 in
15:23 76.5 °F 62.6 °F 30.1 in NNW 5.8 mph 11.4 mph 62 % 0 in
15:29 76.5 °F 62.6 °F 30.1 in North 5.6 mph 11.4 mph 62 % 0 in
15:34 76.6 °F 62.6 °F 30.1 in North 6.3 mph 10.5 mph 60 % 0 in
15:39 76.6 °F 62.6 °F 30.1 in NNW 6 mph 10.7 mph 60 % 0 in
15:44 78.4 °F 62.6 °F 30 in NW 4.3 mph 10.7 mph 59 % 0 in
15:49 78.4 °F 62.6 °F 30 in NE 6.3 mph 10.1 mph 59 % 0 in
15:54 78.6 °F 62.6 °F 30 in North 4.9 mph 12.5 mph 57 % 0 in
15:59 79 °F 62.6 °F 30.1 in NNE 7.8 mph 12.5 mph 56 % 0 in
16:04 78.8 °F 60.8 °F 30.1 in North 5.8 mph 10.7 mph 55 % 0 in
16:09 78.4 °F 60.8 °F 30.1 in NW 4.9 mph 10.7 mph 55 % 0 in
16:14 77.9 °F 60.8 °F 30.1 in North 5.8 mph 10.3 mph 56 % 0 in
16:19 77.2 °F 59 °F 30.1 in North 2.9 mph 10.1 mph 55 % 0 in
16:24 77.2 °F 59 °F 30.1 in NNE 3.6 mph 10.1 mph 55 % 0 in
16:29 79.2 °F 62.6 °F 30 in NNE 3.8 mph 9.8 mph 54 % 0 in
16:34 78.1 °F 60.8 °F 30 in NNE 6 mph 10.3 mph 54 % 0 in
16:39 77.5 °F 60.8 °F 30 in North 6.5 mph 10.3 mph 55 % 0 in
16:44 77.7 °F 60.8 °F 30 in North 5.4 mph 9.6 mph 55 % 0 in
16:49 77.7 °F 60.8 °F 30 in NW 6.5 mph 11 mph 54 % 0 in
16:54 78.3 °F 60.8 °F 30 in NNE 4 mph 11 mph 54 % 0 in
16:59 78.3 °F 60.8 °F 30 in North 4.9 mph 9.8 mph 54 % 0 in
17:04 79 °F 60.8 °F 30 in NNE 7.6 mph 9.8 mph 54 % 0 in
17:09 78.8 °F 60.8 °F 30 in NE 6.5 mph 10.1 mph 54 % 0 in
17:14 78.8 °F 60.8 °F 30 in North 9.6 mph 10.1 mph 53 % 0 in
17:19 78.3 °F 60.8 °F 30 in North 6.7 mph 9.6 mph 53 % 0 in
17:24 77.7 °F 60.8 °F 30 in NNW 8.7 mph 10.1 mph 54 % 0 in
17:29 78.8 °F 60.8 °F 30 in NE 4.9 mph 10.1 mph 54 % 0 in
17:35 79 °F 60.8 °F 30 in NNW 8.1 mph 8.1 mph 53 % 0 in
17:36 78.8 °F 60.8 °F 30 in West 6.3 mph 8.1 mph 53 % 0 in
17:41 79.3 °F 60.8 °F 30 in North 3.8 mph 8.1 mph 52 % 0 in
17:46 79.5 °F 60.8 °F 30 in Calm   8.7 mph 52 % 0 in
17:51 79.2 °F 59 °F 30 in NNE 8.5 mph 10.1 mph 50 % 0 in
17:56 78.8 °F 59 °F 30 in North 7.2 mph 10.1 mph 51 % 0 in
18:01 79.2 °F 60.8 °F 30 in North 4 mph 7.8 mph 51 % 0 in
18:06 79.2 °F 60.8 °F 30 in North 4.3 mph 7.8 mph 52 % 0 in
18:11 78.8 °F 60.8 °F 30 in NNE 4.3 mph 7.6 mph 52 % 0 in
18:16 78.8 °F 59 °F 30 in North 4.9 mph 7.6 mph 51 % 0 in
18:31 78.4 °F 59 °F 30 in North 5.6 mph 6.7 mph 52 % 0 in
18:36 77.5 °F 59 °F 30 in NE 6 mph 9.4 mph 52 % 0 in
18:41 77.4 °F 59 °F 30 in NE 7.4 mph 9.4 mph 53 % 0 in
18:46 77.4 °F 60.8 °F 30 in NNW 3.4 mph 7.8 mph 55 % 0 in
18:51 77.4 °F 59 °F 30 in North 3.6 mph 7.8 mph 53 % 0 in
18:56 77.4 °F 59 °F 30 in NW 4.7 mph 7.8 mph 53 % 0 in
19:01 77.2 °F 59 °F 30 in NNE 5.8 mph 7.8 mph 53 % 0 in
19:07 76.8 °F 59 °F 30 in North 4.3 mph 8.1 mph 53 % 0 in
19:12 76.6 °F 59 °F 30 in North 7.8 mph 8.9 mph 53 % 0 in
19:17 76.5 °F 59 °F 30 in NNE 7.2 mph 8.9 mph 53 % 0 in
19:22 76.1 °F 59 °F 30 in North 5.4 mph 8.9 mph 53 % 0 in
19:27 75.7 °F 59 °F 30 in NE 5.8 mph 8.7 mph 54 % 0 in
19:32 75.6 °F 59 °F 30 in West 6.5 mph 8.7 mph 55 % 0 in
19:37 75.7 °F 59 °F 30 in NNE 4.9 mph 8.7 mph 56 % 0 in
19:42 75 °F 59 °F 30 in NE 6 mph 9.2 mph 56 % 0 in
19:47 75 °F 59 °F 30 in NE 7.2 mph 10.1 mph 56 % 0 in
19:52 75 °F 59 °F 30 in NE 8.5 mph 10.1 mph 56 % 0 in
19:57 75 °F 59 °F 30 in NE 7.6 mph 10.5 mph 56 % 0 in
20:02 75 °F 59 °F 30 in North 4.3 mph 10.5 mph 56 % 0 in
20:07 75 °F 59 °F 30 in ENE 3.1 mph 8.9 mph 56 % 0 in
20:12 75 °F 59 °F 30 in NE 6.3 mph 8.7 mph 56 % 0 in
20:17 73.8 °F 59 °F 30 in NW 5.4 mph 7.8 mph 58 % 0 in
20:22 73.8 °F 59 °F 30 in NE 4 mph 8.5 mph 58 % 0 in
20:27 73.8 °F 59 °F 30 in NNE 5.8 mph 8.7 mph 58 % 0 in
20:31 73.8 °F 59 °F 30 in ENE 3.6 mph 8.7 mph 58 % 0 in
20:36 73.8 °F 59 °F 30 in NE 3.4 mph 8.5 mph 58 % 0 in
20:41 73.8 °F 59 °F 30 in NE 6.3 mph 8.5 mph 58 % 0 in
20:46 73.8 °F 59 °F 30 in NE 4 mph 8.1 mph 58 % 0 in
20:51 73.8 °F 59 °F 30 in North 4 mph 7.6 mph 58 % 0 in
20:56 73.8 °F 59 °F 30 in ENE 7.6 mph 7.8 mph 58 % 0 in
21:01 70.2 °F 57.2 °F 30 in NE 5.4 mph 7.8 mph 64 % 0 in
21:06 70 °F 57.2 °F 30 in NNE 4.3 mph 7.6 mph 65 % 0 in
21:11 69.6 °F 57.2 °F 30 in NNE 4.5 mph 7.6 mph 65 % 0 in
21:12 69.6 °F 57.2 °F 30 in Calm   7.6 mph 65 % 0 in
21:17 69.3 °F 57.2 °F 30 in NE 3.6 mph 5.8 mph 66 % 0 in
21:22 69.1 °F 57.2 °F 30 in NE 5.6 mph 6.3 mph 67 % 0 in
21:27 68.7 °F 57.2 °F 30 in Calm   6.3 mph 67 % 0 in
21:32 68.4 °F 57.2 °F 30 in ENE 2.9 mph 4.9 mph 68 % 0 in
21:37 68 °F 57.2 °F 30 in Calm   4.3 mph 68 % 0 in
21:42 67.6 °F 57.2 °F 30 in Calm   3.6 mph 70 % 0 in
21:47 67.5 °F 57.2 °F 30.1 in NE 2 mph 3.6 mph 70 % 0 in
21:52 66.9 °F 57.2 °F 30.1 in Calm   3.6 mph 70 % 0 in
21:57 66.7 °F 57.2 °F 30.1 in Calm   2.7 mph 71 % 0 in
22:02 66.4 °F 57.2 °F 30 in Calm   2.7 mph 72 % 0 in
22:07 66 °F 57.2 °F 30 in Calm   1.1 mph 72 % 0 in
22:12 65.7 °F 57.2 °F 30 in Calm     73 % 0 in
22:17 65.5 °F 57.2 °F 30 in Calm     73 % 0 in
22:22 64.9 °F 57.2 °F 30 in Calm   1.6 mph 74 % 0 in
22:27 64.6 °F 57.2 °F 30 in Calm   1.6 mph 75 % 0 in
22:32 64.4 °F 57.2 °F 30 in Calm   1.6 mph 76 % 0 in
22:37 64.2 °F 57.2 °F 30 in Calm   2.7 mph 77 % 0 in
22:42 64 °F 57.2 °F 30 in NNW 2.9 mph 3.6 mph 78 % 0 in
22:47 63.9 °F 57.2 °F 30 in Calm   3.6 mph 79 % 0 in
22:53 63.5 °F 57.2 °F 30 in Calm   3.1 mph 79 % 0 in
22:58 63.1 °F 57.2 °F 30 in NNE 2.7 mph 3.4 mph 80 % 0 in
23:03 62.8 °F 57.2 °F 30 in Calm   3.4 mph 81 % 0 in
23:08 62.6 °F 57.2 °F 30 in NE 3.1 mph 3.4 mph 82 % 0 in
23:13 62.4 °F 57.2 °F 30 in Calm   3.6 mph 82 % 0 in
23:18 62.1 °F 57.2 °F 30 in Calm   3.6 mph 82 % 0 in
23:23 62.1 °F 57.2 °F 30 in Calm     82 % 0 in
23:29 61.5 °F 55.4 °F 30 in Calm     82 % 0 in
23:34 60.8 °F 55.4 °F 30 in Calm     82 % 0 in
23:39 60.6 °F 55.4 °F 30 in Calm     83 % 0 in
23:44 60.6 °F 55.4 °F 30 in Calm     83 % 0 in
23:49 60.6 °F 55.4 °F 30 in Calm     83 % 0 in
23:54 60.6 °F 57.2 °F 30 in Calm   1.3 mph 86 % 0 in
23:59 60.6 °F 57.2 °F 30 in Calm   2.5 mph 86 % 0 in
Le Gheer Warneton
Courtoisie de Weather Underground - 2.5 mb

Mise a jour : 17-12-17 08:44:12
Généré par Cumulus 1.9.4 (1099)